Weather History for Warrenton, VA

Change the Weather History Date:

Tuesday, December 24, 2013

  Actual Average (KHEF) Record (KHEF)
Temperature  
Mean Temperature 32 °F -  
Max Temperature 42 °F 41 °F 57 °F (1996)
Min Temperature 23 °F 22 °F 12 °F (2000)
Degree Days  
Heating Degree Days 32    
Moisture  
Dew Point 25 °F    
Average Humidity 73    
Maximum Humidity 100    
Minimum Humidity 50    
Precipitation  
Precipitation 0.00 in - - ()
Sea Level Pressure  
Sea Level Pressure 30.29 in    
Wind  
Wind Speed 8 mph (NW)    
Max Wind Speed 22 mph    
Max Gust Speed 28 mph    
Visibility 10 miles    
Events      
Averages and records for this station are not official NWS values.
T = Trace of Precipitation, MM = Missing Value Source: NWS Daily Summary

Daily Weather History Graph

Daily Weather History Graph

Search for Another Location

Airport:

Trip Planner

Search our weather history database for the weather conditions in past years. The results will help you decide how hot, cold, wet, or windy it might be!

Date:

Astronomy

Dec. 24, 2013 Rise Set
Actual Time 7:26 AM EST 4:54 PM EST
Civil Twilight 6:56 AM EST 5:24 PM EST
Nautical Twilight 6:23 AM EST 5:58 PM EST
Astronomical Twilight 5:50 AM EST 6:30 PM EST
Moon 11:56 PM EST (12/24) 11:23 AM EST (12/24)
Length of Visible Light 10h 28m
Length of Day
9h 28m
Waning Gibbous, 59% of the Moon is Illuminated
Dec 24
Waning Gibbous
Dec 25
Last Quarter
Jan 1
New
Jan 7
First Quarter
Jan 15
Full

Hourly Weather History & Observations

Time (EST) Temp. Windchill Dew Point Humidity Pressure Visibility Wind Dir Wind Speed Gust Speed Precip Events Conditions
12:15 AM 38.5 °F 33.4 °F 32.2 °F 78% 30.22 in 10.0 mi NNW 6.9 mph - N/A   Clear
12:35 AM 37.4 °F 32.8 °F 32.0 °F 81% 30.22 in 10.0 mi North 5.8 mph - N/A   Clear
12:55 AM 37.4 °F 32.1 °F 32.0 °F 81% 30.22 in 10.0 mi North 6.9 mph - N/A   Clear
1:15 AM 36.7 °F 34.1 °F 32.0 °F 83% 30.22 in 10.0 mi North 3.5 mph - N/A   Clear
1:35 AM 36.7 °F 31.2 °F 32.0 °F 83% 30.22 in 10.0 mi North 6.9 mph - N/A   Clear
1:55 AM 36.0 °F 31.1 °F 31.6 °F 84% 30.22 in 10.0 mi North 5.8 mph - N/A   Clear
2:15 AM 35.2 °F 31.2 °F 31.1 °F 85% 30.22 in 10.0 mi North 4.6 mph - N/A   Clear
2:35 AM 35.2 °F 29.5 °F 30.7 °F 84% 30.23 in 10.0 mi NNW 6.9 mph - N/A   Clear
2:55 AM 35.1 °F 31.0 °F 30.0 °F 82% 30.23 in 10.0 mi North 4.6 mph - N/A   Clear
3:15 AM 34.2 °F 29.0 °F 29.8 °F 84% 30.22 in 10.0 mi North 5.8 mph - N/A   Clear
3:35 AM 32.2 °F 28.9 °F 30.0 °F 92% 30.22 in 10.0 mi North 3.5 mph - N/A   Clear
3:55 AM 32.2 °F - 30.0 °F 92% 30.22 in 10.0 mi Calm Calm - N/A   Clear
4:15 AM 31.6 °F 28.3 °F 29.8 °F 93% 30.21 in 10.0 mi NNW 3.5 mph - N/A   Clear
4:35 AM 31.1 °F 26.4 °F 29.3 °F 93% 30.21 in 10.0 mi NNW 4.6 mph - N/A   Clear
4:55 AM 30.0 °F 26.5 °F 29.1 °F 96% 30.21 in 10.0 mi NNW 3.5 mph - N/A   Clear
5:15 AM 30.7 °F - 28.4 °F 91% 30.21 in 10.0 mi Calm Calm - N/A   Clear
5:35 AM 30.0 °F 26.5 °F 28.4 °F 94% 30.22 in 10.0 mi North 3.5 mph - N/A   Clear
5:55 AM 30.0 °F 26.5 °F 28.2 °F 93% 30.22 in 10.0 mi North 3.5 mph - N/A   Clear
6:15 AM 29.8 °F 26.3 °F 28.0 °F 93% 30.22 in 10.0 mi NNW 3.5 mph - N/A   Clear
6:35 AM 28.8 °F 23.7 °F 28.0 °F 97% 30.22 in 10.0 mi NNW 4.6 mph - N/A   Clear
6:55 AM 28.6 °F - 27.1 °F 94% 30.21 in 10.0 mi Calm Calm - N/A   Clear
7:15 AM 27.3 °F - 27.3 °F 100% 30.22 in 10.0 mi Calm Calm - N/A   Clear
7:35 AM 27.5 °F - 27.5 °F 100% 30.23 in 10.0 mi Calm Calm - N/A   Clear
7:55 AM 28.2 °F 24.4 °F 28.2 °F 100% 30.24 in 10.0 mi NW 3.5 mph - N/A   Clear
8:15 AM 32.0 °F 26.4 °F 29.3 °F 90% 30.24 in 10.0 mi NNW 5.8 mph - N/A   Clear
8:35 AM 34.0 °F 27.2 °F 29.3 °F 83% 30.24 in 10.0 mi NNW 8.1 mph - N/A   Clear
8:55 AM 35.2 °F 31.2 °F 29.1 °F 78% 30.24 in 10.0 mi NNW 4.6 mph - N/A   Clear
9:15 AM 36.5 °F 29.7 °F 29.7 °F 76% 30.25 in 10.0 mi North 9.2 mph - N/A   Clear
9:35 AM 37.4 °F 31.4 °F 29.1 °F 72% 30.25 in 10.0 mi North 8.1 mph - N/A   Clear
9:55 AM 38.5 °F 32.7 °F 30.0 °F 72% 30.26 in 10.0 mi NNW 8.1 mph - N/A   Clear
10:15 AM 39.4 °F 33.2 °F 29.7 °F 68% 30.26 in 10.0 mi WNW 9.2 mph - N/A   Clear
10:35 AM 40.5 °F 34.1 °F 30.6 °F 68% 30.26 in 10.0 mi NW 10.4 mph 16.1 mph N/A   Scattered Clouds
10:55 AM 40.8 °F 33.7 °F 31.5 °F 69% 30.25 in 10.0 mi NNW 12.7 mph 16.1 mph N/A   Mostly Cloudy
11:15 AM 40.1 °F 33.2 °F 29.5 °F 66% 30.25 in 10.0 mi NW 11.5 mph - N/A   Mostly Cloudy
11:35 AM 40.1 °F 33.2 °F 29.7 °F 66% 30.23 in 10.0 mi NW 11.5 mph 16.1 mph N/A   Overcast
11:55 AM 41.4 °F 35.7 °F 29.8 °F 64% 30.23 in 10.0 mi West 9.2 mph 16.1 mph N/A   Overcast
12:15 PM 41.5 °F 34.6 °F 29.7 °F 63% 30.23 in 10.0 mi WNW 12.7 mph - N/A   Overcast
12:35 PM 41.2 °F 35.5 °F 29.8 °F 64% 30.22 in 10.0 mi NW 9.2 mph - N/A   Overcast
12:55 PM 40.5 °F 34.1 °F 28.8 °F 63% 30.22 in 10.0 mi WNW 10.4 mph - N/A   Overcast
1:15 PM 41.0 °F 35.2 °F 28.9 °F 62% 30.22 in 10.0 mi WNW 9.2 mph - N/A   Overcast
1:35 PM 41.9 °F 38.2 °F 28.9 °F 60% 30.22 in 10.0 mi WNW 5.8 mph - N/A   Overcast
1:55 PM 40.6 °F 34.3 °F 27.5 °F 59% 30.22 in 10.0 mi WNW 10.4 mph - N/A   Overcast
2:15 PM 41.0 °F 34.3 °F 28.2 °F 60% 30.22 in 10.0 mi WNW 11.5 mph - N/A   Overcast
2:35 PM 39.6 °F 33.0 °F 30.0 °F 69% 30.23 in 10.0 mi NNW 10.4 mph 17.3 mph N/A   Overcast
2:55 PM 40.1 °F 33.2 °F 29.5 °F 66% 30.24 in 10.0 mi WNW 11.5 mph 17.3 mph N/A   Overcast
3:15 PM 40.8 °F 32.6 °F 29.3 °F 64% 30.25 in 10.0 mi WNW 16.1 mph 20.7 mph N/A   Mostly Cloudy
3:35 PM 38.8 °F 30.0 °F 27.9 °F 65% 30.26 in 10.0 mi NNW 16.1 mph 20.7 mph N/A   Overcast
3:55 PM 38.3 °F 30.5 °F 28.9 °F 69% 30.28 in 10.0 mi NW 12.7 mph - N/A   Overcast
4:15 PM 36.0 °F 26.7 °F 27.9 °F 72% 30.29 in 10.0 mi NNW 15.0 mph - N/A   Mostly Cloudy
4:35 PM 34.2 °F 25.2 °F 26.2 °F 73% 30.30 in 10.0 mi NNW 12.7 mph - N/A   Scattered Clouds
4:55 PM 34.0 °F 24.6 °F 25.0 °F 70% 30.31 in 10.0 mi NW 13.8 mph 24.2 mph N/A   Clear
5:15 PM 33.8 °F 23.5 °F 23.2 °F 65% 30.33 in 10.0 mi NW 16.1 mph 23.0 mph N/A   Clear
5:35 PM 33.4 °F 24.3 °F 21.6 °F 62% 30.35 in 10.0 mi NW 12.7 mph 20.7 mph N/A   Clear
5:55 PM 32.9 °F 22.0 °F 18.3 °F 55% 30.36 in 10.0 mi NW 17.3 mph 21.9 mph N/A   Clear
6:15 PM 32.2 °F 21.8 °F 15.4 °F 50% 30.38 in 10.0 mi WNW 15.0 mph 24.2 mph N/A   Clear
6:35 PM 32.0 °F 22.5 °F 15.3 °F 50% 30.39 in 10.0 mi WNW 12.7 mph 18.4 mph N/A   Clear
6:55 PM 31.3 °F 22.7 °F 16.0 °F 53% 30.40 in 10.0 mi WNW 10.4 mph 16.1 mph N/A   Clear
7:15 PM 30.6 °F 20.7 °F 16.3 °F 56% 30.41 in 10.0 mi WNW 12.7 mph 17.3 mph N/A   Clear
7:35 PM 30.6 °F 21.2 °F 16.5 °F 56% 30.41 in 10.0 mi NW 11.5 mph 17.3 mph N/A   Clear
7:55 PM 29.8 °F 18.9 °F 15.4 °F 55% 30.43 in 10.0 mi NNW 15.0 mph 19.6 mph N/A   Clear
8:15 PM 29.3 °F 17.3 °F 15.1 °F 55% 30.43 in 10.0 mi NW 17.3 mph 23.0 mph N/A   Clear
8:35 PM 28.9 °F 15.8 °F 14.4 °F 55% 30.44 in 10.0 mi NW 20.7 mph 26.5 mph N/A   Clear
8:55 PM 27.9 °F 18.4 °F 14.0 °F 56% 30.46 in 10.0 mi NW 10.4 mph 18.4 mph N/A   Clear
9:15 PM 27.1 °F 16.9 °F 13.5 °F 56% 30.46 in 10.0 mi NNW 11.5 mph 18.4 mph N/A   Clear
9:35 PM 26.6 °F 12.4 °F 13.5 °F 58% 30.46 in 10.0 mi NNW 21.9 mph 25.3 mph N/A   Clear
9:55 PM 26.1 °F 15.0 °F 13.5 °F 59% 30.46 in 10.0 mi NNW 12.7 mph 27.6 mph N/A   Clear
10:15 PM 25.7 °F 14.6 °F 13.1 °F 59% 30.47 in 10.0 mi North 12.7 mph 17.3 mph N/A   Clear
10:35 PM 25.5 °F 14.3 °F 13.8 °F 61% 30.46 in 10.0 mi NNW 12.7 mph 23.0 mph N/A   Clear
10:55 PM 24.8 °F 15.3 °F 13.5 °F 62% 30.47 in 10.0 mi NNW 9.2 mph - N/A   Clear
11:15 PM 24.8 °F 12.9 °F 14.2 °F 64% 30.48 in 10.0 mi NW 13.8 mph 21.9 mph N/A   Clear
11:35 PM 24.6 °F 17.7 °F 13.3 °F 62% 30.49 in 10.0 mi North 5.8 mph - N/A   Clear
11:55 PM 23.4 °F 15.2 °F 14.5 °F 69% 30.49 in 10.0 mi NNW 6.9 mph - N/A   Clear